indice_tiempo,produccion_automoviles,produccion_resto,produccion_utilitarios,produccion_categoria_b,exportaciones_automoviles,exportaciones_resto,exportaciones_utilitarios,exportaciones_categoria_b,ventas_mercado_interno_automoviles,ventas_mercado_interno_resto,ventas_mercado_interno_utilitarios,ventas_mercado_interno_categoria_b,ventas_mercado_interno_vehiculos_nacionales_automoviles,ventas_mercado_interno_vehiculos_nacionales_utilitarios,ventas_mercado_interno_vehiculos_nacionales_categoria_b,ventas_mercado_interno_vehiculos_nacionales_total,ventas_mercado_interno_vehiculos_importados_automoviles,ventas_mercado_interno_vehiculos_importados_utilitarios,ventas_mercado_interno_vehiculos_importados_categoria_b,ventas_mercado_interno_vehiculos_importados_total
1963-01-01,5900.0,1458.0,1121.0,337.0,,,,,,,,,,,,,,,,
1963-02-01,5302.0,1216.0,664.0,552.0,,,,,,,,,,,,,,,,
1963-03-01,5921.0,1742.0,1326.0,416.0,,,,,,,,,,,,,,,,
1963-04-01,4791.0,2331.0,1731.0,600.0,,,,,,,,,,,,,,,,
1963-05-01,4981.0,2930.0,1900.0,1030.0,,,,,,,,,,,,,,,,
1963-06-01,4751.0,2599.0,1819.0,780.0,,,,,,,,,,,,,,,,
1963-07-01,5908.0,2154.0,1643.0,511.0,,,,,,,,,,,,,,,,
1963-08-01,5280.0,2932.0,1950.0,982.0,,,,,,,,,,,,,,,,
1963-09-01,6316.0,2537.0,1663.0,874.0,,,,,,,,,,,,,,,,
1963-10-01,7875.0,3125.0,2170.0,955.0,,,,,,,,,,,,,,,,
1963-11-01,8135.0,2639.0,1706.0,933.0,,,,,,,,,,,,,,,,
1963-12-01,10178.0,3898.0,2467.0,1431.0,,,,,,,,,,,,,,,,
1964-01-01,5750.0,2692.0,2093.0,599.0,,,,,,,,,,,,,,,,
1964-02-01,5242.0,2058.0,1629.0,429.0,,,,,,,,,,,,,,,,
1964-03-01,6909.0,3838.0,2666.0,1172.0,,,,,,,,,,,,,,,,
1964-04-01,8558.0,4263.0,2952.0,1311.0,,,,,,,,,,,,,,,,
1964-05-01,7630.0,3780.0,2636.0,1144.0,,,,,,,,,,,,,,,,
1964-06-01,9193.0,4471.0,3222.0,1249.0,,,,,,,,,,,,,,,,
1964-07-01,10609.0,4737.0,3474.0,1263.0,,,,,,,,,,,,,,,,
1964-08-01,10812.0,4943.0,3447.0,1496.0,,,,,,,,,,,,,,,,
1964-09-01,12212.0,5448.0,3699.0,1749.0,,,,,,,,,,,,,,,,
1964-10-01,12064.0,5555.0,3707.0,1848.0,,,,,,,,,,,,,,,,
1964-11-01,12690.0,5593.0,3601.0,1992.0,,,,,,,,,,,,,,,,
1964-12-01,12948.0,4488.0,2981.0,1507.0,,,,,,,,,,,,,,,,
1965-01-01,8262.0,4000.0,2915.0,1085.0,,,,,,,,,,,,,,,,
1965-02-01,8530.0,3872.0,3025.0,847.0,,,,,,,,,,,,,,,,
1965-03-01,11154.0,5390.0,3821.0,1569.0,,,,,,,,,,,,,,,,
1965-04-01,12048.0,4126.0,3128.0,998.0,,,,,,,,,,,,,,,,
1965-05-01,11424.0,4974.0,3614.0,1360.0,,,,,,,,,,,,,,,,
1965-06-01,12693.0,5647.0,4131.0,1516.0,,,,,,,,,,,,,,,,
1965-07-01,11526.0,6179.0,4243.0,1936.0,,,,,,,,,,,,,,,,
1965-08-01,12264.0,5815.0,3584.0,2231.0,,,,,,,,,,,,,,,,
1965-09-01,12778.0,5742.0,3831.0,1911.0,,,,,,,,,,,,,,,,
1965-10-01,11416.0,5061.0,3428.0,1633.0,,,,,,,,,,,,,,,,
1965-11-01,11985.0,5051.0,3380.0,1671.0,,,,,,,,,,,,,,,,
1965-12-01,9654.0,4945.0,3371.0,1574.0,,,,,,,,,,,,,,,,
1966-01-01,8040.0,1795.0,1350.0,445.0,,,,,,,,,,,,,,,,
1966-02-01,7759.0,2965.0,2125.0,840.0,,,,,,,,,,,,,,,,
1966-03-01,11882.0,3984.0,2739.0,1245.0,,,,,,,,,,,,,,,,
1966-04-01,11670.0,2697.0,2013.0,684.0,,,,,,,,,,,,,,,,
1966-05-01,12404.0,4071.0,2877.0,1194.0,,,,,,,,,,,,,,,,
1966-06-01,10541.0,3665.0,2560.0,1105.0,,,,,,,,,,,,,,,,
1966-07-01,11308.0,3385.0,2333.0,1052.0,,,,,,,,,,,,,,,,
1966-08-01,12457.0,4274.0,2903.0,1371.0,,,,,,,,,,,,,,,,
1966-09-01,12298.0,4724.0,3042.0,1682.0,,,,,,,,,,,,,,,,
1966-10-01,11934.0,4561.0,3378.0,1183.0,,,,,,,,,,,,,,,,
1966-11-01,12713.0,4767.0,2998.0,1769.0,,,,,,,,,,,,,,,,
1966-12-01,10806.0,4753.0,3346.0,1407.0,,,,,,,,,,,,,,,,
1967-01-01,11971.0,2695.0,1906.0,789.0,,,,,,,,,,,,,,,,
1967-02-01,6118.0,1283.0,971.0,312.0,,,,,,,,,,,,,,,,
1967-03-01,11497.0,3941.0,2413.0,1528.0,,,,,,,,,,,,,,,,
1967-04-01,12672.0,4233.0,2940.0,1293.0,,,,,,,,,,,,,,,,
1967-05-01,13213.0,4409.0,3329.0,1080.0,,,,,,,,,,,,,,,,
1967-06-01,12418.0,4483.0,3188.0,1295.0,,,,,,,,,,,,,,,,
1967-07-01,11640.0,3960.0,2761.0,1199.0,,,,,,,,,,,,,,,,
1967-08-01,12271.0,3320.0,2260.0,1060.0,,,,,,,,,,,,,,,,
1967-09-01,11250.0,3984.0,2835.0,1149.0,,,,,,,,,,,,,,,,
1967-10-01,11048.0,4157.0,3042.0,1115.0,,,,,,,,,,,,,,,,
1967-11-01,9735.0,4268.0,2875.0,1393.0,,,,,,,,,,,,,,,,
1967-12-01,7205.0,3547.0,2373.0,1174.0,,,,,,,,,,,,,,,,
1968-01-01,7590.0,3587.0,2413.0,1174.0,,,,,,,,,,,,,,,,
1968-02-01,7752.0,3297.0,2520.0,777.0,,,,,,,,,,,,,,,,
1968-03-01,10213.0,4206.0,2789.0,1417.0,,,,,,,,,,,,,,,,
1968-04-01,10758.0,4171.0,2922.0,1249.0,,,,,,,,,,,,,,,,
1968-05-01,11633.0,4457.0,3217.0,1240.0,,,,,,,,,,,,,,,,
1968-06-01,10154.0,3903.0,2783.0,1120.0,,,,,,,,,,,,,,,,
1968-07-01,12161.0,4068.0,2629.0,1439.0,,,,,,,,,,,,,,,,
1968-08-01,10885.0,4464.0,3141.0,1323.0,,,,,,,,,,,,,,,,
1968-09-01,12092.0,4570.0,3165.0,1405.0,,,,,,,,,,,,,,,,
1968-10-01,13486.0,5583.0,3977.0,1606.0,,,,,,,,,,,,,,,,
1968-11-01,12267.0,4865.0,3247.0,1618.0,,,,,,,,,,,,,,,,
1968-12-01,10403.0,4411.0,2939.0,1472.0,,,,,,,,,,,,,,,,
1969-01-01,14714.0,4982.0,3383.0,1599.0,,,,,,,,,,,,,,,,
1969-02-01,5411.0,2452.0,1707.0,745.0,,,,,,,,,,,,,,,,
1969-03-01,13630.0,4392.0,2919.0,1473.0,,,,,,,,,,,,,,,,
1969-04-01,13704.0,5571.0,3713.0,1858.0,,,,,,,,,,,,,,,,
1969-05-01,12652.0,5278.0,3371.0,1907.0,,,,,,,,,,,,,,,,
1969-06-01,13001.0,5359.0,3547.0,1812.0,,,,,,,,,,,,,,,,
1969-07-01,13668.0,6012.0,3987.0,2025.0,,,,,,,,,,,,,,,,
1969-08-01,13335.0,5440.0,3421.0,2019.0,,,,,,,,,,,,,,,,
1969-09-01,13418.0,6581.0,4282.0,2299.0,,,,,,,,,,,,,,,,
1969-10-01,14835.0,6849.0,4446.0,2403.0,,,,,,,,,,,,,,,,
1969-11-01,12204.0,5692.0,3818.0,1874.0,,,,,,,,,,,,,,,,
1969-12-01,13313.0,6097.0,4003.0,2094.0,,,,,,,,,,,,,,,,
1970-01-01,14073.0,5122.0,2748.0,2374.0,,,,,,,,,,,,,,,,
1970-02-01,6221.0,2465.0,1761.0,704.0,,,,,,,,,,,,,,,,
1970-03-01,12719.0,5506.0,3855.0,1651.0,,,,,,,,,,,,,,,,
1970-04-01,15791.0,5272.0,3607.0,1665.0,,,,,,,,,,,,,,,,
1970-05-01,14479.0,4349.0,2913.0,1436.0,,,,,,,,,,,,,,,,
1970-06-01,12315.0,4855.0,3135.0,1720.0,,,,,,,,,,,,,,,,
1970-07-01,15092.0,4686.0,3018.0,1668.0,,,,,,,,,,,,,,,,
1970-08-01,14792.0,4339.0,2812.0,1527.0,,,,,,,,,,,,,,,,
1970-09-01,15142.0,4017.0,2540.0,1477.0,,,,,,,,,,,,,,,,
1970-10-01,15603.0,3689.0,2323.0,1366.0,,,,,,,,,,,,,,,,
1970-11-01,15112.0,3452.0,2184.0,1268.0,,,,,,,,,,,,,,,,
1970-12-01,16705.0,3803.0,2597.0,1206.0,,,,,,,,,,,,,,,,
1971-01-01,15019.0,4461.0,2796.0,1665.0,,,,,,,,,,,,,,,,
1971-02-01,5355.0,2364.0,1925.0,439.0,,,,,,,,,,,,,,,,
1971-03-01,15972.0,4973.0,3078.0,1895.0,,,,,,,,,,,,,,,,
1971-04-01,16368.0,4828.0,3189.0,1639.0,,,,,,,,,,,,,,,,
1971-05-01,16867.0,4760.0,3077.0,1683.0,,,,,,,,,,,,,,,,
1971-06-01,18296.0,5579.0,3846.0,1733.0,,,,,,,,,,,,,,,,
1971-07-01,16962.0,5388.0,3665.0,1723.0,,,,,,,,,,,,,,,,
1971-08-01,18054.0,5426.0,3525.0,1901.0,,,,,,,,,,,,,,,,
1971-09-01,17943.0,5370.0,3544.0,1826.0,,,,,,,,,,,,,,,,
1971-10-01,17068.0,5590.0,3843.0,1747.0,,,,,,,,,,,,,,,,
1971-11-01,17911.0,5878.0,3810.0,2068.0,,,,,,,,,,,,,,,,
1971-12-01,17570.0,5638.0,3868.0,1770.0,,,,,,,,,,,,,,,,
1972-01-01,17777.0,4598.0,2612.0,1986.0,,,,,,,,,,,,,,,,
1972-02-01,7720.0,2197.0,1325.0,872.0,,,,,,,,,,,,,,,,
1972-03-01,19971.0,5866.0,3502.0,2364.0,,,,,,,,,,,,,,,,
1972-04-01,18289.0,5925.0,4000.0,1925.0,,,,,,,,,,,,,,,,
1972-05-01,19005.0,6687.0,4134.0,2553.0,,,,,,,,,,,,,,,,
1972-06-01,20101.0,6732.0,4345.0,2387.0,,,,,,,,,,,,,,,,
1972-07-01,17388.0,6667.0,4433.0,2234.0,,,,,,,,,,,,,,,,
1972-08-01,18093.0,6816.0,4498.0,2318.0,,,,,,,,,,,,,,,,
1972-09-01,17693.0,6300.0,4198.0,2102.0,,,,,,,,,,,,,,,,
1972-10-01,17852.0,6586.0,4344.0,2242.0,,,,,,,,,,,,,,,,
1972-11-01,17651.0,6554.0,4654.0,1900.0,,,,,,,,,,,,,,,,
1972-12-01,16083.0,5671.0,4253.0,1418.0,,,,,,,,,,,,,,,,
1973-01-01,18454.0,6082.0,4122.0,1960.0,,,,,,,,,,,,,,,,
1973-02-01,8850.0,2222.0,1460.0,762.0,,,,,,,,,,,,,,,,
1973-03-01,18687.0,6223.0,4578.0,1645.0,,,,,,,,,,,,,,,,
1973-04-01,18610.0,6801.0,4784.0,2017.0,,,,,,,,,,,,,,,,
1973-05-01,22179.0,7461.0,5607.0,1854.0,,,,,,,,,,,,,,,,
1973-06-01,20010.0,6277.0,4365.0,1912.0,,,,,,,,,,,,,,,,
1973-07-01,19894.0,5405.0,3092.0,2313.0,,,,,,,,,,,,,,,,
1973-08-01,21122.0,6981.0,4658.0,2323.0,,,,,,,,,,,,,,,,
1973-09-01,17586.0,7462.0,5170.0,2292.0,,,,,,,,,,,,,,,,
1973-10-01,22138.0,8355.0,6153.0,2202.0,,,,,,,,,,,,,,,,
1973-11-01,22551.0,7645.0,5419.0,2226.0,,,,,,,,,,,,,,,,
1973-12-01,23579.0,7022.0,4763.0,2259.0,,,,,,,,,,,,,,,,
1974-01-01,16869.0,5884.0,4455.0,1429.0,,,,,,,,,,,,,,,,
1974-02-01,9726.0,3917.0,2913.0,1004.0,,,,,,,,,,,,,,,,
1974-03-01,21024.0,6211.0,4333.0,1878.0,,,,,,,,,,,,,,,,
1974-04-01,22584.0,7408.0,5059.0,2349.0,,,,,,,,,,,,,,,,
1974-05-01,23789.0,7886.0,5902.0,1984.0,,,,,,,,,,,,,,,,
1974-06-01,21056.0,6234.0,4790.0,1444.0,,,,,,,,,,,,,,,,
1974-07-01,20443.0,7345.0,4962.0,2383.0,,,,,,,,,,,,,,,,
1974-08-01,20948.0,6136.0,4140.0,1996.0,,,,,,,,,,,,,,,,
1974-09-01,15683.0,4333.0,2736.0,1597.0,,,,,,,,,,,,,,,,
1974-10-01,23486.0,6964.0,5279.0,1685.0,,,,,,,,,,,,,,,,
1974-11-01,24214.0,7217.0,5335.0,1882.0,,,,,,,,,,,,,,,,
1974-12-01,24814.0,8219.0,6181.0,2038.0,,,,,,,,,,,,,,,,
1975-01-01,20701.0,7319.0,5614.0,1705.0,,,,,,,,,,,,,,,,
1975-02-01,7111.0,1917.0,1312.0,605.0,,,,,,,,,,,,,,,,
1975-03-01,17889.0,5991.0,4684.0,1307.0,,,,,,,,,,,,,,,,
1975-04-01,22266.0,6752.0,4887.0,1865.0,,,,,,,,,,,,,,,,
1975-05-01,21312.0,6233.0,4366.0,1867.0,,,,,,,,,,,,,,,,
1975-06-01,12561.0,5217.0,3811.0,1406.0,,,,,,,,,,,,,,,,
1975-07-01,14067.0,4003.0,2718.0,1285.0,,,,,,,,,,,,,,,,
1975-08-01,14385.0,3667.0,2021.0,1646.0,,,,,,,,,,,,,,,,
1975-09-01,16295.0,4452.0,2392.0,2060.0,,,,,,,,,,,,,,,,
1975-10-01,19293.0,3951.0,2359.0,1592.0,,,,,,,,,,,,,,,,
1975-11-01,13992.0,3719.0,2129.0,1590.0,,,,,,,,,,,,,,,,
1975-12-01,13685.0,4348.0,2505.0,1843.0,,,,,,,,,,,,,,,,
1976-01-01,14666.0,4676.0,2782.0,1894.0,,,,,,,,,,,,,,,,
1976-02-01,6994.0,1856.0,1131.0,725.0,,,,,,,,,,,,,,,,
1976-03-01,10974.0,3510.0,2255.0,1255.0,,,,,,,,,,,,,,,,
1976-04-01,18624.0,4858.0,2767.0,2091.0,,,,,,,,,,,,,,,,
1976-05-01,13405.0,3676.0,2031.0,1645.0,,,,,,,,,,,,,,,,
1976-06-01,11546.0,3692.0,2018.0,1674.0,,,,,,,,,,,,,,,,
1976-07-01,8944.0,4318.0,2450.0,1868.0,,,,,,,,,,,,,,,,
1976-08-01,10923.0,4878.0,2884.0,1994.0,,,,,,,,,,,,,,,,
1976-09-01,13169.0,5021.0,2737.0,2284.0,,,,,,,,,,,,,,,,
1976-10-01,13705.0,6163.0,3624.0,2539.0,,,,,,,,,,,,,,,,
1976-11-01,14877.0,5659.0,3328.0,2331.0,,,,,,,,,,,,,,,,
1976-12-01,15821.0,4993.0,2965.0,2028.0,,,,,,,,,,,,,,,,
1977-01-01,14588.0,5561.0,3419.0,2142.0,,,,,,,,,,,,,,,,
1977-02-01,6769.0,3687.0,2418.0,1269.0,,,,,,,,,,,,,,,,
1977-03-01,15732.0,5377.0,3011.0,2366.0,,,,,,,,,,,,,,,,
1977-04-01,14786.0,5424.0,3201.0,2223.0,,,,,,,,,,,,,,,,
1977-05-01,16690.0,6032.0,3690.0,2342.0,,,,,,,,,,,,,,,,
1977-06-01,16641.0,6088.0,3533.0,2555.0,,,,,,,,,,,,,,,,
1977-07-01,15777.0,6278.0,3608.0,2670.0,,,,,,,,,,,,,,,,
1977-08-01,18593.0,6360.0,3954.0,2406.0,,,,,,,,,,,,,,,,
1977-09-01,19628.0,7097.0,4278.0,2819.0,,,,,,,,,,,,,,,,
1977-10-01,17833.0,7115.0,4218.0,2897.0,,,,,,,,,,,,,,,,
1977-11-01,15087.0,6422.0,3575.0,2847.0,,,,,,,,,,,,,,,,
1977-12-01,14189.0,4827.0,2763.0,2064.0,,,,,,,,,,,,,,,,
1978-01-01,8624.0,3819.0,2177.0,1642.0,,,,,,,,,,,,,,,,
1978-02-01,1585.0,1003.0,526.0,477.0,,,,,,,,,,,,,,,,
1978-03-01,8973.0,3012.0,1919.0,1093.0,,,,,,,,,,,,,,,,
1978-04-01,11140.0,4113.0,2465.0,1648.0,,,,,,,,,,,,,,,,
1978-05-01,13237.0,5061.0,3359.0,1702.0,,,,,,,,,,,,,,,,
1978-06-01,13043.0,5022.0,3339.0,1683.0,,,,,,,,,,,,,,,,
1978-07-01,13766.0,4479.0,2859.0,1620.0,,,,,,,,,,,,,,,,
1978-08-01,14390.0,5157.0,3269.0,1888.0,,,,,,,,,,,,,,,,
1978-09-01,13597.0,4479.0,2802.0,1677.0,,,,,,,,,,,,,,,,
1978-10-01,16718.0,4478.0,2772.0,1706.0,,,,,,,,,,,,,,,,
1978-11-01,17201.0,3983.0,2199.0,1784.0,,,,,,,,,,,,,,,,
1978-12-01,14450.0,3357.0,1831.0,1526.0,,,,,,,,,,,,,,,,
1979-01-01,14908.0,4434.0,3178.0,1256.0,,,,,,,,,,,,,,,,
1979-02-01,5171.0,2004.0,1452.0,552.0,,,,,,,,,,,,,,,,
1979-03-01,15853.0,4574.0,2876.0,1698.0,,,,,,,,,,,,,,,,
1979-04-01,17571.0,4945.0,3329.0,1616.0,,,,,,,,,,,,,,,,
1979-05-01,18947.0,6012.0,3810.0,2202.0,,,,,,,,,,,,,,,,
1979-06-01,18068.0,5657.0,3895.0,1762.0,,,,,,,,,,,,,,,,
1979-07-01,18997.0,6181.0,4083.0,2098.0,,,,,,,,,,,,,,,,
1979-08-01,20887.0,6045.0,4039.0,2006.0,,,,,,,,,,,,,,,,
1979-09-01,18452.0,5614.0,3443.0,2171.0,,,,,,,,,,,,,,,,
1979-10-01,21710.0,7074.0,4565.0,2509.0,,,,,,,,,,,,,,,,
1979-11-01,17924.0,6909.0,4508.0,2401.0,,,,,,,,,,,,,,,,
1979-12-01,13185.0,5122.0,3071.0,2051.0,,,,,,,,,,,,,,,,
1980-01-01,19758.0,5969.0,4009.0,1960.0,,,,,,,,,,,,,,,,
1980-02-01,5058.0,2360.0,1776.0,584.0,,,,,,,,,,,,,,,,
1980-03-01,16187.0,5774.0,3780.0,1994.0,,,,,,,,,,,,,,,,
1980-04-01,20601.0,5973.0,3944.0,2029.0,,,,,,,,,,,,,,,,
1980-05-01,21981.0,6262.0,4313.0,1949.0,,,,,,,,,,,,,,,,
1980-06-01,19843.0,5627.0,3870.0,1757.0,,,,,,,,,,,,,,,,
1980-07-01,21836.0,6497.0,4438.0,2059.0,,,,,,,,,,,,,,,,
1980-08-01,22349.0,5940.0,4180.0,1760.0,,,,,,,,,,,,,,,,
1980-09-01,22085.0,5698.0,3819.0,1879.0,,,,,,,,,,,,,,,,
1980-10-01,21937.0,5646.0,3725.0,1921.0,,,,,,,,,,,,,,,,
1980-11-01,18220.0,5474.0,3624.0,1850.0,,,,,,,,,,,,,,,,
1980-12-01,12835.0,5007.0,3547.0,1460.0,,,,,,,,,,,,,,,,
1981-01-01,20670.0,4503.0,3109.0,1394.0,,,,,,,,,,,,,,,,
1981-02-01,7076.0,1399.0,1013.0,386.0,,,,,,,,,,,,,,,,
1981-03-01,18619.0,4800.0,3264.0,1536.0,,,,,,,,,,,,,,,,
1981-04-01,18308.0,4543.0,2930.0,1613.0,,,,,,,,,,,,,,,,
1981-05-01,14803.0,4186.0,2593.0,1593.0,,,,,,,,,,,,,,,,
1981-06-01,12725.0,1257.0,759.0,498.0,,,,,,,,,,,,,,,,
1981-07-01,11374.0,1506.0,1066.0,440.0,,,,,,,,,,,,,,,,
1981-08-01,6453.0,1327.0,894.0,433.0,,,,,,,,,,,,,,,,
1981-09-01,5204.0,1169.0,657.0,512.0,,,,,,,,,,,,,,,,
1981-10-01,5489.0,1026.0,558.0,468.0,,,,,,,,,,,,,,,,
1981-11-01,10815.0,3680.0,2973.0,707.0,,,,,,,,,,,,,,,,
1981-12-01,10134.0,4385.0,3578.0,807.0,,,,,,,,,,,,,,,,
1982-01-01,7822.0,2456.0,1575.0,881.0,,,,,,,,,,,,,,,,
1982-02-01,7241.0,2125.0,1831.0,294.0,,,,,,,,,,,,,,,,
1982-03-01,6481.0,1488.0,490.0,998.0,,,,,,,,,,,,,,,,
1982-04-01,6526.0,1540.0,910.0,630.0,,,,,,,,,,,,,,,,
1982-05-01,5347.0,1048.0,331.0,717.0,,,,,,,,,,,,,,,,
1982-06-01,7961.0,1633.0,855.0,778.0,,,,,,,,,,,,,,,,
1982-07-01,9246.0,2665.0,1717.0,948.0,,,,,,,,,,,,,,,,
1982-08-01,10957.0,2668.0,1834.0,834.0,,,,,,,,,,,,,,,,
1982-09-01,12152.0,3056.0,2306.0,750.0,,,,,,,,,,,,,,,,
1982-10-01,11730.0,2637.0,1759.0,878.0,,,,,,,,,,,,,,,,
1982-11-01,12700.0,2162.0,1409.0,753.0,,,,,,,,,,,,,,,,
1982-12-01,9655.0,2039.0,1466.0,573.0,,,,,,,,,,,,,,,,
1983-01-01,12473.0,3036.0,2317.0,719.0,,,,,,,,,,,,,,,,
1983-02-01,3998.0,735.0,397.0,338.0,,,,,,,,,,,,,,,,
1983-03-01,10542.0,2565.0,1894.0,671.0,,,,,,,,,,,,,,,,
1983-04-01,10278.0,3079.0,2351.0,728.0,,,,,,,,,,,,,,,,
1983-05-01,12191.0,2795.0,2115.0,680.0,,,,,,,,,,,,,,,,
1983-06-01,12551.0,3013.0,2407.0,606.0,,,,,,,,,,,,,,,,
1983-07-01,11362.0,2989.0,1959.0,1030.0,,,,,,,,,,,,,,,,
1983-08-01,11179.0,3293.0,2401.0,892.0,,,,,,,,,,,,,,,,
1983-09-01,12440.0,3224.0,2315.0,909.0,,,,,,,,,,,,,,,,
1983-10-01,10996.0,2591.0,1807.0,784.0,,,,,,,,,,,,,,,,
1983-11-01,13153.0,2679.0,1819.0,860.0,,,,,,,,,,,,,,,,
1983-12-01,8845.0,1004.0,513.0,491.0,,,,,,,,,,,,,,,,
1984-01-01,9594.0,1695.0,1102.0,593.0,,,,,,,,,,,,,,,,
1984-02-01,3537.0,959.0,406.0,553.0,,,,,,,,,,,,,,,,
1984-03-01,11031.0,2119.0,1140.0,979.0,,,,,,,,,,,,,,,,
1984-04-01,11667.0,2225.0,1156.0,1069.0,,,,,,,,,,,,,,,,
1984-05-01,12986.0,3047.0,1832.0,1215.0,,,,,,,,,,,,,,,,
1984-06-01,14132.0,3270.0,2248.0,1022.0,,,,,,,,,,,,,,,,
1984-07-01,13871.0,3509.0,2294.0,1215.0,,,,,,,,,,,,,,,,
1984-08-01,13676.0,3270.0,1927.0,1343.0,,,,,,,,,,,,,,,,
1984-09-01,12100.0,3122.0,2044.0,1078.0,,,,,,,,,,,,,,,,
1984-10-01,15194.0,3135.0,1903.0,1232.0,,,,,,,,,,,,,,,,
1984-11-01,12913.0,2637.0,1320.0,1317.0,,,,,,,,,,,,,,,,
1984-12-01,9292.0,2019.0,739.0,1280.0,,,,,,,,,,,,,,,,
1985-01-01,10893.0,2241.0,1142.0,1099.0,,,,,,,,,,,,,,,,
1985-02-01,2169.0,793.0,288.0,505.0,,,,,,,,,,,,,,,,
1985-03-01,11406.0,2523.0,1127.0,1396.0,,,,,,,,,,,,,,,,
1985-04-01,11156.0,2232.0,1059.0,1173.0,,,,,,,,,,,,,,,,
1985-05-01,10298.0,1908.0,918.0,990.0,,,,,,,,,,,,,,,,
1985-06-01,8119.0,1502.0,577.0,925.0,,,,,,,,,,,,,,,,
1985-07-01,7945.0,403.0,22.0,381.0,,,,,,,,,,,,,,,,
1985-08-01,10136.0,1715.0,1100.0,615.0,,,,,,,,,,,,,,,,
1985-09-01,10689.0,1814.0,792.0,1022.0,,,,,,,,,,,,,,,,
1985-10-01,11807.0,2155.0,955.0,1200.0,,,,,,,,,,,,,,,,
1985-11-01,11310.0,2004.0,927.0,1077.0,,,,,,,,,,,,,,,,
1985-12-01,10746.0,1987.0,1276.0,711.0,,,,,,,,,,,,,,,,
1986-01-01,11478.0,2252.0,1380.0,872.0,,,,,,,,,,,,,,,,
1986-02-01,2582.0,587.0,388.0,199.0,,,,,,,,,,,,,,,,
1986-03-01,11243.0,2128.0,1175.0,953.0,,,,,,,,,,,,,,,,
1986-04-01,13614.0,2613.0,1517.0,1096.0,,,,,,,,,,,,,,,,
1986-05-01,13476.0,3303.0,1641.0,1662.0,,,,,,,,,,,,,,,,
1986-06-01,8184.0,1976.0,971.0,1005.0,,,,,,,,,,,,,,,,
1986-07-01,11782.0,3309.0,1839.0,1470.0,,,,,,,,,,,,,,,,
1986-08-01,13989.0,3613.0,2143.0,1470.0,,,,,,,,,,,,,,,,
1986-09-01,14458.0,3757.0,2133.0,1624.0,,,,,,,,,,,,,,,,
1986-10-01,15331.0,3728.0,2195.0,1533.0,,,,,,,,,,,,,,,,
1986-11-01,13609.0,3346.0,1853.0,1493.0,,,,,,,,,,,,,,,,
1986-12-01,11109.0,3299.0,1924.0,1375.0,,,,,,,,,,,,,,,,
1987-01-01,13722.0,2996.0,1809.0,1187.0,,,,,,,,,,,,,,,,
1987-02-01,2903.0,668.0,216.0,452.0,,,,,,,,,,,,,,,,
1987-03-01,12876.0,3405.0,2010.0,1395.0,,,,,,,,,,,,,,,,
1987-04-01,14904.0,3480.0,1951.0,1529.0,,,,,,,,,,,,,,,,
1987-05-01,14875.0,3266.0,1852.0,1414.0,,,,,,,,,,,,,,,,
1987-06-01,15352.0,3712.0,2103.0,1609.0,,,,,,,,,,,,,,,,
1987-07-01,15480.0,3509.0,2112.0,1397.0,,,,,,,,,,,,,,,,
1987-08-01,14181.0,3305.0,1713.0,1592.0,,,,,,,,,,,,,,,,
1987-09-01,15084.0,3155.0,1799.0,1356.0,,,,,,,,,,,,,,,,
1987-10-01,13666.0,2776.0,1655.0,1121.0,,,,,,,,,,,,,,,,
1987-11-01,12738.0,2156.0,1210.0,946.0,,,,,,,,,,,,,,,,
1987-12-01,12962.0,2328.0,1447.0,881.0,,,,,,,,,,,,,,,,
1988-01-01,13464.0,2199.0,1340.0,859.0,,,,,,,,,,,,,,,,
1988-02-01,3021.0,859.0,347.0,512.0,,,,,,,,,,,,,,,,
1988-03-01,14934.0,3185.0,1885.0,1300.0,,,,,,,,,,,,,,,,
1988-04-01,13038.0,2797.0,1673.0,1124.0,,,,,,,,,,,,,,,,
1988-05-01,15307.0,3186.0,1833.0,1353.0,,,,,,,,,,,,,,,,
1988-06-01,13610.0,3165.0,1734.0,1431.0,,,,,,,,,,,,,,,,
1988-07-01,13904.0,3054.0,1782.0,1272.0,,,,,,,,,,,,,,,,
1988-08-01,12974.0,2769.0,1754.0,1015.0,,,,,,,,,,,,,,,,
1988-09-01,10442.0,2171.0,1270.0,901.0,,,,,,,,,,,,,,,,
1988-10-01,7389.0,1130.0,468.0,662.0,,,,,,,,,,,,,,,,
1988-11-01,10293.0,2386.0,1542.0,844.0,,,,,,,,,,,,,,,,
1988-12-01,7400.0,1593.0,881.0,712.0,,,,,,,,,,,,,,,,
1989-01-01,,,,,,,,,,,,,,,,,,,,
1989-02-01,,,,,,,,,,,,,,,,,,,,
1989-03-01,,,,,,,,,,,,,,,,,,,,
1989-04-01,,,,,,,,,,,,,,,,,,,,
1989-05-01,,,,,,,,,,,,,,,,,,,,
1989-06-01,,,,,,,,,,,,,,,,,,,,
1989-07-01,,,,,,,,,,,,,,,,,,,,
1989-08-01,,,,,,,,,,,,,,,,,,,,
1989-09-01,,,,,,,,,,,,,,,,,,,,
1989-10-01,,,,,,,,,,,,,,,,,,,,
1989-11-01,,,,,,,,,,,,,,,,,,,,
1989-12-01,,,,,,,,,,,,,,,,,,,,
1990-01-01,,,,,,,,,,,,,,,,,,,,
1990-02-01,,,,,,,,,,,,,,,,,,,,
1990-03-01,,,,,,,,,,,,,,,,,,,,
1990-04-01,,,,,,,,,,,,,,,,,,,,
1990-05-01,,,,,,,,,,,,,,,,,,,,
1990-06-01,,,,,,,,,,,,,,,,,,,,
1990-07-01,,,,,,,,,,,,,,,,,,,,
1990-08-01,,,,,,,,,,,,,,,,,,,,
1990-09-01,,,,,,,,,,,,,,,,,,,,
1990-10-01,,,,,,,,,,,,,,,,,,,,
1990-11-01,,,,,,,,,,,,,,,,,,,,
1990-12-01,,,,,,,,,,,,,,,,,,,,
1991-01-01,,,,,,,,,,,,,,,,,,,,
1991-02-01,,,,,,,,,,,,,,,,,,,,
1991-03-01,,,,,,,,,,,,,,,,,,,,
1991-04-01,,,,,,,,,,,,,,,,,,,,
1991-05-01,,,,,,,,,,,,,,,,,,,,
1991-06-01,,,,,,,,,,,,,,,,,,,,
1991-07-01,,,,,,,,,,,,,,,,,,,,
1991-08-01,,,,,,,,,,,,,,,,,,,,
1991-09-01,,,,,,,,,,,,,,,,,,,,
1991-10-01,,,,,,,,,,,,,,,,,,,,
1991-11-01,,,,,,,,,,,,,,,,,,,,
1991-12-01,,,,,,,,,,,,,,,,,,,,
1992-01-01,,,,,,,,,,,,,,,,,,,,
1992-02-01,,,,,,,,,,,,,,,,,,,,
1992-03-01,,,,,,,,,,,,,,,,,,,,
1992-04-01,,,,,,,,,,,,,,,,,,,,
1992-05-01,,,,,,,,,,,,,,,,,,,,
1992-06-01,,,,,,,,,,,,,,,,,,,,
1992-07-01,,,,,,,,,,,,,,,,,,,,
1992-08-01,,,,,,,,,,,,,,,,,,,,
1992-09-01,,,,,,,,,,,,,,,,,,,,
1992-10-01,,,,,,,,,,,,,,,,,,,,
1992-11-01,,,,,,,,,,,,,,,,,,,,
1992-12-01,,,,,,,,,,,,,,,,,,,,
1993-01-01,22010.0,4177.0,3515.0,662.0,,,,,,,,,,,,,,,,
1993-02-01,4033.0,717.0,389.0,328.0,,,,,,,,,,,,,,,,
1993-03-01,21971.0,4065.0,3086.0,979.0,,,,,,,,,,,,,,,,
1993-04-01,21919.0,3980.0,3036.0,944.0,,,,,,,,,,,,,,,,
1993-05-01,24172.0,3712.0,2846.0,866.0,,,,,,,,,,,,,,,,
1993-06-01,25468.0,4959.0,3993.0,966.0,,,,,,,,,,,,,,,,
1993-07-01,26967.0,5181.0,4259.0,922.0,,,,,,,,,,,,,,,,
1993-08-01,27342.0,5387.0,4321.0,1066.0,,,,,,,,,,,,,,,,
1993-09-01,28936.0,5516.0,4477.0,1039.0,,,,,,,,,,,,,,,,
1993-10-01,26920.0,5483.0,4420.0,1063.0,,,,,,,,,,,,,,,,
1993-11-01,29044.0,6113.0,4840.0,1273.0,,,,,,,,,,,,,,,,
1993-12-01,28182.0,6090.0,4949.0,1141.0,,,,,,,,,,,,,,,,
1994-01-01,28731.0,5427.0,4687.0,740.0,,,,,,,,,,,,,,,,
1994-02-01,6475.0,1980.0,1505.0,475.0,,,,,,,,,,,,,,,,
1994-03-01,28041.0,5719.0,4282.0,1437.0,,,,,,,,,,,,,,,,
1994-04-01,29311.0,5849.0,4585.0,1264.0,,,,,,,,,,,,,,,,
1994-05-01,28480.0,5768.0,4495.0,1273.0,,,,,,,,,,,,,,,,
1994-06-01,28575.0,5855.0,4407.0,1448.0,,,,,,,,,,,,,,,,
1994-07-01,30466.0,5632.0,4215.0,1417.0,,,,,,,,,,,,,,,,
1994-08-01,35111.0,6683.0,5349.0,1334.0,,,,,,,,,,,,,,,,
1994-09-01,34757.0,7085.0,5493.0,1592.0,,,,,,,,,,,,,,,,
1994-10-01,31021.0,6628.0,5085.0,1543.0,,,,,,,,,,,,,,,,
1994-11-01,32013.0,7320.0,5755.0,1565.0,,,,,,,,,,,,,,,,
1994-12-01,25374.0,6476.0,4995.0,1481.0,,,,,,,,,,,,,,,,
1995-01-01,6584.0,2234.0,1549.0,685.0,964.0,636.0,480.0,156.0,19433.0,4297.0,3348.0,949.0,9714.0,1544.0,504.0,11762.0,9719.0,1804.0,445.0,11968.0
1995-02-01,26972.0,5989.0,5197.0,792.0,958.0,1079.0,815.0,264.0,31479.0,5392.0,4246.0,1146.0,23635.0,2451.0,531.0,26617.0,7844.0,1795.0,615.0,10254.0
1995-03-01,28515.0,7025.0,5627.0,1398.0,1674.0,3546.0,3283.0,263.0,31013.0,5407.0,4146.0,1261.0,23451.0,2488.0,939.0,26878.0,7562.0,1658.0,322.0,9542.0
1995-04-01,18293.0,6225.0,5150.0,1075.0,1277.0,3862.0,3300.0,562.0,22498.0,2845.0,2551.0,294.0,16507.0,1664.0,157.0,18328.0,5991.0,887.0,137.0,7015.0
1995-05-01,23106.0,7805.0,6662.0,1143.0,2942.0,4431.0,3985.0,446.0,22596.0,3592.0,3190.0,402.0,17944.0,1826.0,285.0,20055.0,4652.0,1364.0,117.0,6133.0
1995-06-01,16317.0,5163.0,4257.0,906.0,1767.0,4598.0,3831.0,767.0,19507.0,3582.0,3038.0,544.0,14087.0,1604.0,413.0,16104.0,5420.0,1434.0,131.0,6985.0
1995-07-01,18609.0,4143.0,3044.0,1099.0,2275.0,1455.0,1091.0,364.0,21194.0,3111.0,2587.0,524.0,16275.0,1360.0,358.0,17993.0,4919.0,1227.0,166.0,6312.0
1995-08-01,19000.0,4710.0,3582.0,1128.0,1244.0,2727.0,1975.0,752.0,22956.0,4599.0,3735.0,864.0,15484.0,2065.0,439.0,17988.0,7472.0,1670.0,425.0,9567.0
1995-09-01,17510.0,3618.0,2680.0,938.0,2816.0,2544.0,1998.0,546.0,23994.0,3667.0,3117.0,550.0,16079.0,1872.0,389.0,18340.0,7915.0,1245.0,161.0,9321.0
1995-10-01,17950.0,4492.0,3645.0,847.0,1296.0,2290.0,1776.0,514.0,21767.0,3619.0,2910.0,709.0,14911.0,1723.0,466.0,17100.0,6856.0,1187.0,243.0,8286.0
1995-11-01,18713.0,4235.0,3748.0,487.0,2368.0,2198.0,1865.0,333.0,21135.0,4448.0,3752.0,696.0,13536.0,1838.0,530.0,15904.0,7599.0,1914.0,166.0,9679.0
1995-12-01,15087.0,3140.0,2702.0,438.0,3235.0,564.0,443.0,121.0,22179.0,3672.0,2685.0,987.0,15562.0,1632.0,698.0,17892.0,6617.0,1053.0,289.0,7959.0
1996-01-01,3466.0,1152.0,706.0,446.0,525.0,646.0,588.0,58.0,17134.0,3797.0,2994.0,803.0,10344.0,1346.0,470.0,12160.0,6790.0,1648.0,333.0,8771.0
1996-02-01,16731.0,3741.0,3002.0,739.0,1603.0,1306.0,860.0,446.0,20454.0,4494.0,3424.0,1070.0,14075.0,1916.0,600.0,16591.0,6379.0,1508.0,470.0,8357.0
1996-03-01,21231.0,3207.0,2428.0,779.0,5368.0,1624.0,1324.0,300.0,24206.0,5494.0,4585.0,909.0,16057.0,2282.0,477.0,18816.0,8149.0,2303.0,432.0,10884.0
1996-04-01,23094.0,3311.0,2363.0,948.0,7258.0,1887.0,1517.0,370.0,25029.0,6188.0,5078.0,1110.0,17066.0,2245.0,603.0,19914.0,7963.0,2833.0,507.0,11303.0
1996-05-01,25620.0,4113.0,3132.0,981.0,8680.0,2013.0,1595.0,418.0,23876.0,6308.0,5025.0,1283.0,15257.0,1679.0,780.0,17716.0,8619.0,3346.0,503.0,12468.0
1996-06-01,22492.0,3518.0,2627.0,891.0,7422.0,1374.0,1194.0,180.0,21643.0,7181.0,5950.0,1231.0,13162.0,1509.0,760.0,15431.0,8481.0,4441.0,471.0,13393.0
1996-07-01,26410.0,4811.0,3723.0,1088.0,12798.0,1664.0,1448.0,216.0,26107.0,7480.0,6170.0,1310.0,15881.0,1905.0,788.0,18574.0,10226.0,4265.0,522.0,15013.0
1996-08-01,27983.0,4109.0,3046.0,1063.0,9163.0,1879.0,1677.0,202.0,25892.0,7947.0,5842.0,2105.0,14892.0,1230.0,1383.0,17505.0,11000.0,4612.0,722.0,16334.0